Location: Gwatt
(46.7204°N, 7.6223°E)
Time: 02:15:54
(UTC+00:00)

S-56A Canister/Altair - Pass Details

Date: 27 June 2021
Orbit: 631 x 2501 km, 38.9° (Epoch: 02 August)

Event Time Altitude Azimuth Distance (km) Brightness Sun altitude
Exits shadow 02:46:34 - 233° (SW) 2,317 9.3 -7.4°
Reaches altitude 10° 02:46:53 10° 231° (SW) 2,202 9.2 -7.4°
Maximum altitude 02:51:04 29° 172° (S) 1,193 8.2 -6.9°
Drops below altitude 10° 02:54:53 10° 111° (ESE) 2,006 10.0 -6.4°
Sets 02:57:24 0° 100° (E) 2,954 11.1 -6.1°
